FENGYUN 1C DEB, 30266

Orbit data source: Space-Track

FENGYUN 1C DEB, 30266 is space debris in SSO originally from a launch on Mon, 10 May 1999 UTC launched from the Taiyaun Space Center, China (TSC). Fengyun 1C debris stems from the Chinese weather satellite Fengyun-1C, which was intentionally destroyed by a Chinese anti-satellite missile in 2007. This event dramatically increased the amount of space debris, with thousands of trackable fragments posing hazards to satellites and human spaceflight. The Fengyun 1C debris cloud has become a focal point in discussions about space sustainability and the need for international regulations to prevent the creation of new debris.

Loading next visibility...
Identifier
30266, 1999-025YB
Orbit
SSO
Country
Flag of CNCN / PRC
Related business
Manufacturer
Unknown
Mission
Spacecraft
Bus & Motor
Unknown
Mass
Unknown
Launch date (UTC)
1999-05-10 (27 years ago)
Launch vehicle
Unknown
Launch site
Taiyaun Space Center, China (TSC)
Object type
Payload
Rocket body
Debris
Shape & HBR
Unknown shape, 0.1 m
Radar Cross Section
Small (<0.1 m²)

Expand to show TLE details & history
Last TLE update: 10 hours ago

TLE from 10 hours ago
0 FENGYUN 1C DEB
1 30266U 99025YB  26095.15233493  .00003401  00000-0  16945-2 0  9999
2 30266  99.0289 165.8922 0084622 104.9343 285.4440 14.15768094983940
Epoch: 2026-04-05T03:39Z
TLE epoch observation values (Epoch: 2026-04-05T03:39:21.737Z)
Latitude
29.08932°
Longitude
-87.45514°
Altitude
827.504 km
Speed
7.45 km/s
True Right ascension
10h 43m 23s
True Declination
28° 56' 42"
Sunlit
Object was in full shadow at epoch
Visualization orbit readout
Latitude
Unknown
Longitude
Unknown
Altitude
Unknown
Speed
Unknown
Apparent Right ascension
Unknown
Apparent Declination
Unknown
Sunlit
N/A
Visualization observer readout
Local Sidereal Time
19:30:25
Azimuth
Unknown
Elevation
Unknown
Doppler factor
Unknown
Orbital elements
Apogee altitude
897.935 km
Perigee altitude
775.825 km
Semi-major axis
7,215.017 km
Eccentricity
0.00846
Inclination
99.0289°
RAAN
165.8922°
Arg. of periapsis
104.9343°
True anomaly
284.50672°
Mean anomaly
285.444°
Eccentric anomaly
284.97562°
Mean motion
3.5415 °/min
Orbital period
101.65 mins
BSTAR
0.0016945
Loading maneuver chart data...
Computing Atmospheric mass density...

Documentation

Showing up to 5 results
|